EW7112 Weather Reports


time (UTC)temp
C
wind
direction
speed
KPH
gust
KPH
rain 1hr
cm
rain 24hr
cm
rain mn
cm
humidity
%
barometer
mb
20260904163024 31 256 3.2 11.3 0.00 0.00 0.00 60 992.5
20260904161519 31 240 4.8 12.9 0.00 0.00 0.00 60 992.6
20260904160016 30 219 3.2 14.5 0.00 0.00 0.00 64 992.5
20260904154511 30 211 6.4 11.3 0.00 0.00 0.00 65 992.4
20260904153010 30 200 3.2 11.3 0.00 0.00 0.00 68 992.4
20260904151508 30 214 4.8 14.5 0.00 0.00 0.00 70 992.3
20260904150012 28 329 3.2 9.7 0.00 0.00 0.00 76 992.3
20260904144501 28 291 6.4 12.9 0.00 0.00 0.00 78 992.3
20260904143058 27 111 4.8 14.5 0.00 0.00 0.00 80 992.3
20260904141611 27 217 1.6 8.0 0.00 0.00 0.00 81 992.4
20260904140055 26 78 3.2 9.7 0.00 0.00 0.00 82 992.3
20260904134550 26 149 3.2 8.0 0.00 0.00 0.00 82 992.2
20260904133048 26 144 3.2 8.0 0.00 0.00 0.00 82 992.1
20260904131605 26 123 4.8 14.5 0.00 0.00 0.00 82 992.0
20260904130044 26 98 3.2 11.3 0.00 0.00 0.00 82 991.8
20260904124544 26 157 3.2 12.9 0.00 0.00 0.00 82 991.6
20260904123055 26 108 1.6 11.3 0.00 0.00 0.00 82 991.5
20260904121537 26 137 3.2 6.4 0.00 0.00 0.00 82 991.4
20260904120034 26 151 1.6 6.4 0.00 0.00 0.00 82 991.3
20260904114542 26 136 1.6 8.0 0.00 0.00 0.00 82 991.2
20260904113033 26 178 1.6 6.4 0.00 0.00 0.00 82 991.2
20260904111533 26 224 0.0 8.0 0.00 0.00 0.00 82 991.1
20260904110035 26 158 1.6 8.0 0.00 0.00 0.00 82 991.1
20260904104529 26 143 1.6 6.4 0.00 0.00 0.00 82 990.9
20260904103028 26 113 0.0 4.8 0.00 0.00 0.00 82 990.9
20260904101527 26 121 0.0 4.8 0.00 0.00 0.00 82 990.8
20260904100027 26 93 1.6 8.0 0.00 0.00 0.00 81 990.8
20260904094526 26 166 0.0 6.4 0.00 0.00 0.00 81 990.7
20260904093023 26 186 0.0 9.7 0.00 0.00 0.00 81 990.7
20260904091527 26 108 1.6 6.4 0.00 0.00 0.00 81 990.7
20260904090025 26 194 3.2 9.7 0.00 0.00 0.00 80 990.7
20260904084521 26 180 1.6 8.0 0.00 0.00 0.00 80 990.7
20260904083022 26 170 1.6 4.8 0.00 0.00 0.00 80 990.6
20260904081519 26 104 0.0 6.4 0.00 0.00 0.00 79 990.6
20260904080020 26 169 1.6 8.0 0.00 0.00 0.00 79 990.5
20260904074519 26 221 3.2 9.7 0.00 0.00 0.00 78 990.5
20260904073016 27 115 1.6 11.3 0.00 0.00 0.00 77 990.6
20260904071528 27 82 3.2 8.0 0.00 0.00 0.00 77 990.7
20260904070013 27 112 1.6 6.4 0.00 0.00 0.00 76 990.8
20260904064509 27 173 1.6 6.4 0.00 0.00 0.00 76 991.0
20260904063009 27 174 1.6 9.7 0.00 0.00 0.00 75 990.9
20260904061507 27 232 1.6 11.3 0.00 0.00 0.00 74 991.0
20260904060004 27 105 3.2 9.7 0.00 0.00 0.00 72 991.0
20260904054503 27 97 3.2 11.3 0.00 0.00 0.00 71 991.1
20260904053100 27 114 1.6 6.4 0.00 0.00 0.00 70 990.9
20260904051559 27 40 1.6 8.0 0.00 0.00 0.00 69 990.8
20260904050056 27 125 3.2 6.4 0.00 0.00 0.00 67 990.8
20260904044558 27 85 1.6 8.0 0.00 0.00 0.00 66 990.8
20260904043054 27 146 1.6 12.9 0.00 0.00 0.00 66 990.6
20260904041554 28 158 3.2 14.5 0.00 0.00 0.00 65 990.8
20260904040053 28 128 3.2 8.0 0.00 0.00 0.00 65 990.8
20260904034601 28 217 4.8 9.7 0.00 0.00 0.00 66 990.8
20260904033052 28 138 4.8 11.3 0.00 0.00 0.00 66 990.9
20260904031551 28 188 3.2 14.5 0.00 0.00 0.00 66 990.8
20260904030051 28 133 8.0 14.5 0.00 0.00 0.00 65 990.8
20260904024550 28 150 6.4 16.1 0.00 0.00 0.00 64 990.5
20260904023049 29 155 1.6 8.0 0.00 0.00 0.00 64 990.3
20260904021549 29 108 1.6 11.3 0.00 0.00 0.00 66 990.0
20260904020049 29 141 6.4 17.7 0.00 0.00 0.00 66 989.7
20260904014549 30 121 4.8 20.9 0.00 0.00 0.00 65 989.4
20260904013049 30 130 11.3 20.9 0.00 0.00 0.00 64 989.3
20260904011548 30 137 6.4 19.3 0.00 0.00 0.00 60 989.0
20260904010053 31 135 3.2 12.9 0.00 0.00 0.00 59 988.8
20260904004557 31 139 9.7 20.9 0.00 0.00 0.00 59 988.9
20260904003045 31 84 9.7 17.7 0.00 0.00 0.00 59 988.7
20260904001543 31 89 6.4 16.1 0.00 0.00 0.00 59 988.7
20260904000056 32 94 6.4 19.3 0.00 0.00 0.00 58 988.6
20260903234545 32 107 6.4 17.7 0.00 0.00 0.00 57 988.5
20260903233039 32 93 4.8 17.7 0.00 0.00 0.00 57 988.3
20260903231538 33 123 3.2 11.3 0.00 0.00 0.00 57 988.1
20260903230036 33 131 6.4 17.7 0.00 0.00 0.00 57 988.1
20260903224538 33 51 8.0 19.3 0.00 0.00 0.00 56 988.3
20260903223038 33 109 4.8 17.7 0.00 0.00 0.00 57 988.0
20260903221532 34 120 4.8 17.7 0.00 0.00 0.00 55 988.1
20260903220039 34 162 4.8 19.3 0.00 0.00 0.00 55 988.1
20260903214526 33 126 8.0 16.1 0.00 0.00 0.00 56 988.2
20260903213034 33 207 4.8 14.5 0.00 0.00 0.00 57 988.4
20260903211552 33 127 1.6 9.7 0.00 0.00 0.00 57 988.4
20260903210017 33 141 8.0 20.9 0.00 0.00 0.00 59 988.7
20260903204513 33 167 4.8 16.1 0.00 0.00 0.00 59 988.9
20260903203012 33 215 6.4 19.3 0.00 0.00 0.00 59 989.1
20260903201508 32 360 6.4 14.5 0.00 0.00 0.00 63 989.4
20260903200006 32 49 6.4 16.1 0.00 0.00 0.00 62 989.4
20260903194503 32 127 4.8 16.1 0.00 0.00 0.00 63 989.5
20260903193101 32 110 8.0 19.3 0.00 0.00 0.00 64 989.7
20260903191557 32 117 4.8 22.5 0.00 0.00 0.00 64 989.8
20260903190057 31 96 6.4 16.1 0.00 0.00 0.00 66 990.1
20260903184600 31 97 4.8 17.7 0.00 0.00 0.00 67 990.3
20260903183049 31 165 8.0 19.3 0.00 0.00 0.00 69 990.5
20260903181547 31 128 6.4 17.7 0.00 0.00 0.00 69 990.6
20260903180049 31 186 4.8 20.9 0.00 0.00 0.00 68 990.6
20260903174604 31 129 4.8 16.1 0.00 0.00 0.00 68 990.8
20260903173045 31 176 4.8 20.9 0.00 0.00 0.00 69 990.9
20260903171542 31 173 3.2 19.3 0.00 0.00 0.00 68 991.1
20260903170103 31 96 8.0 16.1 0.00 0.00 0.00 69 991.1
20260903164542 30 172 3.2 19.3 0.00 0.00 0.00 73 991.2